Time,TemperatureF,DewpointF,PressureIn,WindDirection,WindDirectionDegrees,WindSpeedMPH,WindSpeedGustMPH,Humidity,HourlyPrecipIn,Conditions,Clouds,dailyrainin,SoftwareType,DateUTC
2013-05-13 00:05:00,49.5,32.1,29.89,NNW,342,0.0,1.0,51,0.00,,,0.00,Wunderground v.1.15,2013-05-13 04:05:00,
2013-05-13 00:10:00,49.4,31.0,29.89,West,277,0.0,3.0,49,0.00,,,0.00,Wunderground v.1.15,2013-05-13 04:10:00,
2013-05-13 00:15:00,49.2,31.8,29.89,West,279,0.0,3.0,51,0.00,,,0.00,Wunderground v.1.15,2013-05-13 04:15:00,
2013-05-13 00:20:00,49.1,30.7,29.90,West,279,0.0,0.0,49,0.00,,,0.00,Wunderground v.1.15,2013-05-13 04:20:00,
2013-05-13 00:25:00,48.8,31.5,29.90,NW,319,0.0,0.0,51,0.00,,,0.00,Wunderground v.1.15,2013-05-13 04:25:00,
2013-05-13 00:35:00,48.5,31.7,29.90,NNW,329,0.0,1.0,52,0.00,,,0.00,Wunderground v.1.15,2013-05-13 04:35:00,
2013-05-13 00:45:00,48.0,31.7,29.90,NNW,329,0.0,0.0,53,0.00,,,0.00,Wunderground v.1.15,2013-05-13 04:45:00,
2013-05-13 00:55:00,47.7,31.4,29.91,NNW,329,0.0,0.0,53,0.00,,,0.00,Wunderground v.1.15,2013-05-13 04:55:00,
2013-05-13 01:10:00,47.3,31.9,29.91,WNW,300,0.0,3.0,55,0.00,,,0.00,Wunderground v.1.15,2013-05-13 05:10:00,
2013-05-13 01:15:00,47.6,31.3,29.91,WNW,282,0.0,3.0,53,0.00,,,0.00,Wunderground v.1.15,2013-05-13 05:15:00,
2013-05-13 01:25:00,47.6,32.2,29.91,WNW,282,0.0,0.0,55,0.00,,,0.00,Wunderground v.1.15,2013-05-13 05:25:00,
2013-05-13 01:35:00,47.6,32.2,29.91,WNW,282,0.0,0.0,55,0.00,,,0.00,Wunderground v.1.15,2013-05-13 05:35:00,
2013-05-13 01:45:00,47.1,31.3,29.91,WNW,286,0.0,2.0,54,0.00,,,0.00,Wunderground v.1.15,2013-05-13 05:45:00,
2013-05-13 01:55:00,47.1,31.7,29.91,WNW,286,0.0,2.0,55,0.00,,,0.00,Wunderground v.1.15,2013-05-13 05:55:00,
2013-05-13 02:05:00,46.8,30.1,29.91,WNW,286,0.0,0.0,52,0.00,,,0.00,Wunderground v.1.15,2013-05-13 06:05:00,
2013-05-13 02:15:00,46.8,31.5,29.91,WNW,286,0.0,0.0,55,0.00,,,0.00,Wunderground v.1.15,2013-05-13 06:15:00,
2013-05-13 02:25:00,46.4,30.6,29.91,WNW,286,0.0,0.0,54,0.00,,,0.00,Wunderground v.1.15,2013-05-13 06:25:00,
2013-05-13 02:35:00,45.7,31.8,29.91,WNW,286,0.0,0.0,58,0.00,,,0.00,Wunderground v.1.15,2013-05-13 06:35:00,
2013-05-13 02:45:00,45.2,32.1,29.91,WNW,286,0.0,0.0,60,0.00,,,0.00,Wunderground v.1.15,2013-05-13 06:45:00,
2013-05-13 02:55:00,44.8,33.0,29.91,WNW,286,0.0,0.0,63,0.00,,,0.00,Wunderground v.1.15,2013-05-13 06:55:00,
2013-05-13 03:05:00,44.2,32.8,29.92,WNW,286,0.0,0.0,64,0.00,,,0.00,Wunderground v.1.15,2013-05-13 07:05:00,
2013-05-13 03:15:00,43.8,33.2,29.92,WNW,286,0.0,0.0,66,0.00,,,0.00,Wunderground v.1.15,2013-05-13 07:15:00,
2013-05-13 03:25:00,43.6,33.7,29.92,WNW,286,0.0,0.0,68,0.00,,,0.00,Wunderground v.1.15,2013-05-13 07:25:00,
2013-05-13 03:35:00,43.5,33.6,29.91,WNW,286,0.0,0.0,68,0.00,,,0.00,Wunderground v.1.15,2013-05-13 07:35:00,
2013-05-13 03:45:00,43.3,33.4,29.91,WNW,286,0.0,0.0,68,0.00,,,0.00,Wunderground v.1.15,2013-05-13 07:45:00,
2013-05-13 03:55:00,43.2,33.7,29.92,WNW,286,0.0,0.0,69,0.00,,,0.00,Wunderground v.1.15,2013-05-13 07:55:00,
2013-05-13 04:05:00,42.8,34.0,29.92,WNW,286,0.0,0.0,71,0.00,,,0.00,Wunderground v.1.15,2013-05-13 08:05:00,
2013-05-13 04:15:00,42.6,34.5,29.92,WNW,286,0.0,0.0,73,0.00,,,0.00,Wunderground v.1.15,2013-05-13 08:15:00,
2013-05-13 04:25:00,42.2,34.2,29.93,WNW,286,0.0,0.0,73,0.00,,,0.00,Wunderground v.1.15,2013-05-13 08:25:00,
2013-05-13 04:35:00,42.1,34.7,29.93,WNW,286,0.0,0.0,75,0.00,,,0.00,Wunderground v.1.15,2013-05-13 08:35:00,
2013-05-13 04:45:00,41.5,34.5,29.93,WNW,286,0.0,0.0,76,0.00,,,0.00,Wunderground v.1.15,2013-05-13 08:45:00,
2013-05-13 04:55:00,41.2,34.5,29.93,WNW,286,0.0,0.0,77,0.00,,,0.00,Wunderground v.1.15,2013-05-13 08:55:00,
2013-05-13 05:05:00,40.9,34.6,29.94,WNW,286,0.0,0.0,78,0.00,,,0.00,Wunderground v.1.15,2013-05-13 09:05:00,
2013-05-13 05:15:00,41.1,35.1,29.94,WNW,286,0.0,0.0,79,0.00,,,0.00,Wunderground v.1.15,2013-05-13 09:15:00,
2013-05-13 05:20:00,40.9,34.9,29.94,WNW,286,0.0,0.0,79,0.00,,,0.00,Wunderground v.1.15,2013-05-13 09:20:00,
2013-05-13 05:25:00,40.8,34.8,29.94,WNW,286,0.0,0.0,79,0.00,,,0.00,Wunderground v.1.15,2013-05-13 09:25:00,
2013-05-13 05:35:00,40.8,34.8,29.95,WNW,286,0.0,0.0,79,0.00,,,0.00,Wunderground v.1.15,2013-05-13 09:35:00,
2013-05-13 05:45:00,40.6,34.9,29.95,WNW,286,0.0,0.0,80,0.00,,,0.00,Wunderground v.1.15,2013-05-13 09:45:00,
2013-05-13 05:55:00,40.5,34.8,29.95,WNW,286,0.0,0.0,80,0.00,,,0.00,Wunderground v.1.15,2013-05-13 09:55:00,
2013-05-13 06:05:00,40.8,35.4,29.96,WNW,286,0.0,0.0,81,0.00,,,0.00,Wunderground v.1.15,2013-05-13 10:05:00,
2013-05-13 06:15:00,41.1,35.7,29.96,WNW,286,0.0,0.0,81,0.00,,,0.00,Wunderground v.1.15,2013-05-13 10:15:00,
2013-05-13 06:25:00,41.5,36.1,29.97,WNW,286,0.0,0.0,81,0.00,,,0.00,Wunderground v.1.15,2013-05-13 10:25:00,
2013-05-13 06:35:00,42.5,36.8,29.97,WNW,286,0.0,0.0,80,0.00,,,0.00,Wunderground v.1.15,2013-05-13 10:35:00,
2013-05-13 06:45:00,42.8,36.4,29.97,WNW,286,0.0,0.0,78,0.00,,,0.00,Wunderground v.1.15,2013-05-13 10:45:00,
2013-05-13 06:55:00,43.6,35.9,29.97,WNW,286,0.0,0.0,74,0.00,,,0.00,Wunderground v.1.15,2013-05-13 10:55:00,
2013-05-13 07:05:00,44.9,35.3,29.97,WNW,286,0.0,0.0,69,0.00,,,0.00,Wunderground v.1.15,2013-05-13 11:05:00,
2013-05-13 07:15:00,46.0,34.9,29.97,WNW,286,0.0,0.0,65,0.00,,,0.00,Wunderground v.1.15,2013-05-13 11:15:00,
2013-05-13 07:25:00,46.5,33.8,29.97,WNW,292,1.0,1.0,61,0.00,,,0.00,Wunderground v.1.15,2013-05-13 11:25:00,
2013-05-13 07:35:00,47.1,34.3,29.97,West,275,1.0,3.0,61,0.00,,,0.00,Wunderground v.1.15,2013-05-13 11:35:00,
2013-05-13 07:45:00,47.4,33.4,29.97,West,269,1.0,2.0,58,0.00,,,0.00,Wunderground v.1.15,2013-05-13 11:45:00,
2013-05-13 07:55:00,47.6,34.4,29.98,NNW,327,0.0,2.0,60,0.00,,,0.00,Wunderground v.1.15,2013-05-13 11:55:00,
2013-05-13 08:05:00,47.7,33.6,29.98,NNW,327,1.0,2.0,58,0.00,,,0.00,Wunderground v.1.15,2013-05-13 12:05:00,
2013-05-13 08:15:00,48.0,32.6,29.98,NW,321,2.0,2.0,55,0.00,,,0.00,Wunderground v.1.15,2013-05-13 12:15:00,
2013-05-13 08:25:00,48.5,35.7,29.99,WNW,290,1.0,2.0,61,0.00,,,0.00,Wunderground v.1.15,2013-05-13 12:25:00,
2013-05-13 08:35:00,49.4,35.2,29.99,WNW,286,1.0,1.0,58,0.00,,,0.00,Wunderground v.1.15,2013-05-13 12:35:00,
2013-05-13 08:45:00,49.1,34.5,29.99,SW,230,2.0,4.0,57,0.00,,,0.00,Wunderground v.1.15,2013-05-13 12:45:00,
2013-05-13 08:55:00,50.2,35.1,29.99,WNW,286,1.0,5.0,56,0.00,,,0.00,Wunderground v.1.15,2013-05-13 12:55:00,
2013-05-13 09:05:00,49.6,36.3,30.00,WNW,301,1.0,2.0,60,0.00,,,0.00,Wunderground v.1.15,2013-05-13 13:05:00,
2013-05-13 09:15:00,49.4,33.9,30.00,NW,311,1.0,2.0,55,0.00,,,0.00,Wunderground v.1.15,2013-05-13 13:15:00,
2013-05-13 09:20:00,49.8,35.2,30.00,NW,317,1.0,1.0,57,0.00,,,0.00,Wunderground v.1.15,2013-05-13 13:20:00,
2013-05-13 09:25:00,50.5,33.5,30.00,WNW,286,2.0,2.0,52,0.00,,,0.00,Wunderground v.1.15,2013-05-13 13:25:00,
2013-05-13 09:35:00,49.8,32.4,29.99,North,360,2.0,2.0,51,0.00,,,0.00,Wunderground v.1.15,2013-05-13 13:35:00,
2013-05-13 09:45:00,49.6,33.2,29.99,NNE,15,1.0,2.0,53,0.00,,,0.00,Wunderground v.1.15,2013-05-13 13:45:00,
2013-05-13 09:55:00,49.6,33.2,30.00,WNW,283,1.0,2.0,53,0.00,,,0.00,Wunderground v.1.15,2013-05-13 13:55:00,
2013-05-13 10:05:00,49.6,33.6,29.99,SW,228,2.0,2.0,54,0.00,,,0.00,Wunderground v.1.15,2013-05-13 14:05:00,
2013-05-13 10:15:00,52.2,34.1,29.99,SW,228,2.0,3.0,50,0.00,,,0.00,Wunderground v.1.15,2013-05-13 14:15:00,
2013-05-13 10:25:00,51.0,33.5,29.99,WSW,248,2.0,2.0,51,0.00,,,0.00,Wunderground v.1.15,2013-05-13 14:25:00,
2013-05-13 10:35:00,50.2,34.2,29.99,NE,47,2.0,3.0,54,0.00,,,0.00,Wunderground v.1.15,2013-05-13 14:35:00,
2013-05-13 10:45:00,52.2,32.6,29.99,SSE,157,2.0,3.0,47,0.00,,,0.00,Wunderground v.1.15,2013-05-13 14:45:00,
2013-05-13 10:55:00,52.0,32.9,29.99,West,269,1.0,3.0,48,0.00,,,0.00,Wunderground v.1.15,2013-05-13 14:55:00,
2013-05-13 11:05:00,51.4,35.3,29.99,West,281,2.0,2.0,54,0.00,,,0.00,Wunderground v.1.15,2013-05-13 15:05:00,
2013-05-13 11:15:00,53.5,32.7,29.99,WSW,239,2.0,5.0,45,0.00,,,0.00,Wunderground v.1.15,2013-05-13 15:15:00,
2013-05-13 11:25:00,55.3,33.2,30.00,WSW,257,2.0,3.0,43,0.00,,,0.00,Wunderground v.1.15,2013-05-13 15:25:00,
2013-05-13 11:35:00,53.8,31.2,30.00,West,272,2.0,3.0,42,0.00,,,0.00,Wunderground v.1.15,2013-05-13 15:35:00,
2013-05-13 11:45:00,56.2,36.8,30.00,SSW,208,2.0,3.0,48,0.00,,,0.00,Wunderground v.1.15,2013-05-13 15:45:00,
2013-05-13 11:55:00,54.2,31.0,30.00,WNW,293,2.0,2.0,41,0.00,,,0.00,Wunderground v.1.15,2013-05-13 15:55:00,
2013-05-13 12:05:00,53.3,31.9,30.00,NW,311,3.0,3.0,44,0.00,,,0.00,Wunderground v.1.15,2013-05-13 16:05:00,
2013-05-13 12:15:00,54.5,30.6,30.00,NW,322,2.0,3.0,40,0.00,,,0.00,Wunderground v.1.15,2013-05-13 16:15:00,
2013-05-13 12:25:00,56.2,32.8,30.00,WNW,294,3.0,3.0,41,0.00,,,0.00,Wunderground v.1.15,2013-05-13 16:25:00,
2013-05-13 12:35:00,54.4,30.6,29.99,NW,306,3.0,4.0,40,0.00,,,0.00,Wunderground v.1.15,2013-05-13 16:35:00,
2013-05-13 12:45:00,55.6,30.4,29.99,WSW,252,2.0,3.0,38,0.00,,,0.00,Wunderground v.1.15,2013-05-13 16:45:00,
2013-05-13 12:55:00,55.6,32.8,30.00,SSW,202,2.0,2.0,42,0.00,,,0.00,Wunderground v.1.15,2013-05-13 16:55:00,
2013-05-13 13:05:00,57.6,30.1,29.99,WNW,300,3.0,3.0,35,0.00,,,0.00,Wunderground v.1.15,2013-05-13 17:05:00,
2013-05-13 13:15:00,56.6,30.6,29.99,WNW,298,2.0,4.0,37,0.00,,,0.00,Wunderground v.1.15,2013-05-13 17:15:00,
2013-05-13 13:25:00,55.0,30.5,29.98,NNW,329,2.0,2.0,39,0.00,,,0.00,Wunderground v.1.15,2013-05-13 17:25:00,
2013-05-13 13:35:00,55.3,32.0,29.98,NW,317,2.0,5.0,41,0.00,,,0.00,Wunderground v.1.15,2013-05-13 17:35:00,
2013-05-13 13:45:00,54.7,29.6,29.98,NW,314,2.0,2.0,38,0.00,,,0.00,Wunderground v.1.15,2013-05-13 17:45:00,
2013-05-13 13:55:00,55.3,29.4,29.98,West,269,2.0,2.0,37,0.00,,,0.00,Wunderground v.1.15,2013-05-13 17:55:00,
2013-05-13 14:05:00,54.5,28.7,29.98,WSW,254,3.0,5.0,37,0.00,,,0.00,Wunderground v.1.15,2013-05-13 18:05:00,
2013-05-13 14:15:00,54.4,31.2,29.98,WNW,298,4.0,4.0,41,0.00,,,0.00,Wunderground v.1.15,2013-05-13 18:15:00,
2013-05-13 14:25:00,56.7,30.7,29.97,SE,140,2.0,4.0,37,0.00,,,0.00,Wunderground v.1.15,2013-05-13 18:25:00,
2013-05-13 14:35:00,55.3,30.1,29.97,WNW,290,3.0,3.0,38,0.00,,,0.00,Wunderground v.1.15,2013-05-13 18:35:00,
2013-05-13 14:45:00,55.0,29.2,29.97,WNW,287,3.0,4.0,37,0.00,,,0.00,Wunderground v.1.15,2013-05-13 18:45:00,
2013-05-13 14:55:00,56.5,28.4,29.97,North,355,2.0,4.0,34,0.00,,,0.00,Wunderground v.1.15,2013-05-13 18:55:00,
2013-05-13 15:05:00,54.8,30.9,29.97,NNW,333,2.0,3.0,40,0.00,,,0.00,Wunderground v.1.15,2013-05-13 19:05:00,
2013-05-13 15:15:00,54.1,29.0,29.97,NNE,30,2.0,8.0,38,0.00,,,0.00,Wunderground v.1.15,2013-05-13 19:15:00,
2013-05-13 15:25:00,53.3,28.3,29.97,WNW,288,3.0,4.0,38,0.00,,,0.00,Wunderground v.1.15,2013-05-13 19:25:00,
2013-05-13 15:35:00,52.9,28.6,29.97,NW,311,3.0,3.0,39,0.00,,,0.00,Wunderground v.1.15,2013-05-13 19:35:00,
2013-05-13 15:45:00,52.5,30.6,29.97,NW,304,2.0,2.0,43,0.00,,,0.00,Wunderground v.1.15,2013-05-13 19:45:00,
2013-05-13 15:55:00,52.6,27.0,29.98,WNW,297,2.0,2.0,37,0.00,,,0.00,Wunderground v.1.15,2013-05-13 19:55:00,
2013-05-13 16:05:00,52.5,29.5,29.97,WNW,295,2.0,3.0,41,0.00,,,0.00,Wunderground v.1.15,2013-05-13 20:05:00,
2013-05-13 16:15:00,52.0,30.2,29.97,NNW,338,1.0,2.0,43,0.00,,,0.00,Wunderground v.1.15,2013-05-13 20:15:00,
2013-05-13 16:25:00,52.8,30.3,29.97,NE,38,1.0,2.0,42,0.00,,,0.00,Wunderground v.1.15,2013-05-13 20:25:00,
2013-05-13 16:35:00,53.6,29.8,29.97,NW,325,3.0,4.0,40,0.00,,,0.00,Wunderground v.1.15,2013-05-13 20:35:00,
2013-05-13 16:45:00,53.8,28.8,29.97,South,176,2.0,2.0,38,0.00,,,0.00,Wunderground v.1.15,2013-05-13 20:45:00,
2013-05-13 16:55:00,53.5,29.7,29.97,West,275,2.0,2.0,40,0.00,,,0.00,Wunderground v.1.15,2013-05-13 20:55:00,
2013-05-13 17:05:00,53.3,27.7,29.96,NW,312,2.0,4.0,37,0.00,,,0.00,Wunderground v.1.15,2013-05-13 21:05:00,
2013-05-13 17:15:00,53.5,27.2,29.96,NNW,332,2.0,5.0,36,0.00,,,0.00,Wunderground v.1.15,2013-05-13 21:15:00,
2013-05-13 17:25:00,53.1,26.8,29.96,West,279,2.0,3.0,36,0.00,,,0.00,Wunderground v.1.15,2013-05-13 21:25:00,
2013-05-13 17:35:00,53.1,24.0,29.96,West,267,3.0,3.0,32,0.00,,,0.00,Wunderground v.1.15,2013-05-13 21:35:00,
2013-05-13 17:45:00,52.9,27.3,29.96,WSW,251,3.0,4.0,37,0.00,,,0.00,Wunderground v.1.15,2013-05-13 21:45:00,
2013-05-13 17:55:00,52.8,28.5,29.96,West,273,2.0,2.0,39,0.00,,,0.00,Wunderground v.1.15,2013-05-13 21:55:00,
2013-05-13 18:05:00,52.0,27.1,29.97,NNE,30,2.0,4.0,38,0.00,,,0.00,Wunderground v.1.15,2013-05-13 22:05:00,
2013-05-13 18:15:00,51.7,26.9,29.97,NE,38,2.0,2.0,38,0.00,,,0.00,Wunderground v.1.15,2013-05-13 22:15:00,
2013-05-13 18:25:00,51.9,29.5,29.97,NNE,12,1.0,2.0,42,0.00,,,0.00,Wunderground v.1.15,2013-05-13 22:25:00,
2013-05-13 18:35:00,52.0,26.5,29.97,NNW,332,1.0,3.0,37,0.00,,,0.00,Wunderground v.1.15,2013-05-13 22:35:00,
2013-05-13 18:45:00,52.0,27.8,29.97,ENE,69,3.0,3.0,39,0.00,,,0.00,Wunderground v.1.15,2013-05-13 22:45:00,
2013-05-13 18:55:00,51.7,27.5,29.97,NW,315,2.0,3.0,39,0.00,,,0.00,Wunderground v.1.15,2013-05-13 22:55:00,
2013-05-13 19:05:00,51.7,29.3,29.97,NNW,327,2.0,3.0,42,0.00,,,0.00,Wunderground v.1.15,2013-05-13 23:05:00,
2013-05-13 19:15:00,51.7,28.7,29.97,WNW,291,2.0,2.0,41,0.00,,,0.00,Wunderground v.1.15,2013-05-13 23:15:00,
2013-05-13 19:25:00,51.3,30.1,29.98,NNW,331,2.0,3.0,44,0.00,,,0.00,Wunderground v.1.15,2013-05-13 23:25:00,
2013-05-13 19:35:00,51.3,30.1,29.99,West,277,2.0,3.0,44,0.00,,,0.00,Wunderground v.1.15,2013-05-13 23:35:00,
2013-05-13 19:45:00,50.5,31.0,29.99,NNE,28,2.0,3.0,47,0.00,,,0.00,Wunderground v.1.15,2013-05-13 23:45:00,
2013-05-13 19:55:00,49.8,31.4,30.00,North,360,1.0,2.0,49,0.00,,,0.00,Wunderground v.1.15,2013-05-13 23:55:00,
2013-05-13 20:05:00,48.9,32.5,30.00,North,355,0.0,1.0,53,0.00,,,0.00,Wunderground v.1.15,2013-05-14 00:05:00,
2013-05-13 20:15:00,48.2,32.8,30.00,NNE,19,0.0,0.0,55,0.00,,,0.00,Wunderground v.1.15,2013-05-14 00:15:00,
2013-05-13 20:25:00,47.6,32.7,30.01,NNE,19,0.0,0.0,56,0.00,,,0.00,Wunderground v.1.15,2013-05-14 00:25:00,
2013-05-13 20:35:00,47.7,31.9,30.02,NNW,343,1.0,2.0,54,0.00,,,0.00,Wunderground v.1.15,2013-05-14 00:35:00,
2013-05-13 20:45:00,47.4,32.9,30.02,NNE,15,0.0,0.0,57,0.00,,,0.00,Wunderground v.1.15,2013-05-14 00:45:00,
2013-05-13 20:55:00,46.8,34.0,30.02,NNE,15,0.0,0.0,61,0.00,,,0.00,Wunderground v.1.15,2013-05-14 00:55:00,
2013-05-13 21:06:00,46.0,33.3,30.03,NNE,15,0.0,0.0,61,0.00,,,0.00,Wunderground v.1.15,2013-05-14 01:06:00,
2013-05-13 21:15:00,45.5,34.0,30.03,NNE,15,0.0,0.0,64,0.00,,,0.00,Wunderground v.1.15,2013-05-14 01:15:00,
2013-05-13 21:25:00,44.9,33.8,30.04,NNE,15,0.0,0.0,65,0.00,,,0.00,Wunderground v.1.15,2013-05-14 01:25:00,
2013-05-13 21:35:00,44.5,34.2,30.05,NNE,15,0.0,0.0,67,0.00,,,0.00,Wunderground v.1.15,2013-05-14 01:35:00,
2013-05-13 21:45:00,44.5,35.3,30.05,NNE,15,0.0,0.0,70,0.00,,,0.00,Wunderground v.1.15,2013-05-14 01:45:00,
2013-05-13 21:55:00,44.1,34.2,30.05,NNE,15,0.0,0.0,68,0.00,,,0.00,Wunderground v.1.15,2013-05-14 01:55:00,
2013-05-13 22:05:00,43.6,33.7,30.06,NNE,15,0.0,0.0,68,0.00,,,0.00,Wunderground v.1.15,2013-05-14 02:05:00,
2013-05-13 22:15:00,43.3,33.8,30.06,NNE,15,0.0,0.0,69,0.00,,,0.00,Wunderground v.1.15,2013-05-14 02:15:00,
2013-05-13 22:25:00,43.1,35.0,30.06,NNE,15,0.0,0.0,73,0.00,,,0.00,Wunderground v.1.15,2013-05-14 02:25:00,
2013-05-13 22:35:00,42.8,34.7,30.06,NNE,15,0.0,0.0,73,0.00,,,0.00,Wunderground v.1.15,2013-05-14 02:35:00,
2013-05-13 22:45:00,42.5,34.5,30.06,NNE,15,0.0,0.0,73,0.00,,,0.00,Wunderground v.1.15,2013-05-14 02:45:00,
2013-05-13 22:55:00,42.3,34.6,30.06,NNE,15,0.0,0.0,74,0.00,,,0.00,Wunderground v.1.15,2013-05-14 02:55:00,
2013-05-13 23:05:00,42.2,35.2,30.06,NNE,15,0.0,0.0,76,0.00,,,0.00,Wunderground v.1.15,2013-05-14 03:05:00,
2013-05-13 23:15:00,41.9,34.6,30.06,NNE,15,0.0,0.0,75,0.00,,,0.00,Wunderground v.1.15,2013-05-14 03:15:00,
2013-05-13 23:25:00,41.8,34.8,30.06,NNE,15,0.0,0.0,76,0.00,,,0.00,Wunderground v.1.15,2013-05-14 03:25:00,
2013-05-13 23:35:00,41.8,34.8,30.06,NNE,15,0.0,0.0,76,0.00,,,0.00,Wunderground v.1.15,2013-05-14 03:35:00,
2013-05-13 23:45:00,41.6,34.9,30.06,NNE,15,0.0,0.0,77,0.00,,,0.00,Wunderground v.1.15,2013-05-14 03:45:00,
2013-05-13 23:55:00,41.2,34.5,30.07,NNE,15,0.0,0.0,77,0.00,,,0.00,Wunderground v.1.15,2013-05-14 03:55:00,